Погода в Фурманове

Россия / Ивановская область     57°15′09″N   41°06′22″E
темп.,
°C
ветер,
м/с
пор.,
м/с
влажн.,
%
обл.,
%
осадки,
мм/ч
давл.,
гПа
погр.,
м
22 апреля, чт
чт2200:00+3ююз4894100 0.0 1011374
03:00+3ю4995100 0.0 1012381
06:00+3ю5994100 0.0 1013453
09:00+5ю6988100 0.0 1014593
12:00+8ююз6975100 0.0 10151073
15:00+10ююз7106779 0.2 10151352
18:00+10ююз597130 0.2 1015589
21:00+7ю4108814 0.2 1017229
23 апреля, пт
пт2300:00+6ю412929 0.0 1017251
03:00+5ююв4119415 0.0 1016221
06:00+5ююв512935 0.0 1016265
09:00+11ю6117264 0.1 1016545
12:00+15ю7105179 0.1 10161773
15:00+14ююв71155100 0.1 10151059
18:00+14ююв6115474 0.0 1014696
21:00+10ююв614715 0.0 1015385
24 апреля, сб
сб2400:00+8юв514815 0.0 1013339
03:00+7юв514835 0.1 1011341
06:00+7юв5148293 0.1 1010399
09:00+11юв8146897 0.1 10071402
12:00+12юв91370100 0.8 10051650
15:00+4з61092100 1.9 1007410
18:00+3зсз4997100 2.8 1008469
21:00+4з3791100 4.3 1008543
25 апреля, вс
вс2500:00+2з259588 0.0 1007135
03:00+1зюз35958 0.0 1007111
06:00+1з49875 0.0 1007289
09:00+5з58665 0.0 1008812
12:00+8зюз6751100 0.1 10082024
15:00+8зюз574699 0.1 10091979
18:00+7зюз465958 0.1 10091156
21:00+3юз36795 0.3 1010138
26 апреля, пн
пн2600:00+2зюз410844 0.0 1011285
03:000юз49915 0.0 1012246
06:000юз410845 0.0 1012346
09:00+5юз576333 0.0 10121152
12:00+8зюз564699 0.5 10121963
15:00+8юз564298 0.6 10111982
18:00+7юз355429 0.2 10111026
21:00+3зюз226817 0.3 101114